When you browse on this site, cookies collect data to enhance your experience and personalize the content and advertising you see.
Visit our Privacy Policy to learn more. By continuing to use the site, you agree to this use of cookies and data.
  • In United Kingdom
  • List of Countries
  • For 7 days
  • Water Temperature
  • Weather Map
  • Weather Widgets
  • user-avatar
    Login

    Hourly Weather Rio Branco

    Today, 13 November, Wednesday

    Time Temperature Precipitation Wind Pressure Humidity
    00:00 +26°C° 0.7 mm 1 mps 743 mmHg 90%
    01:00 +25°C° 0.7 mm 1 mps 742 mmHg 92%
    02:00 +25°C° 1.7 mm 1 mps 742 mmHg 94%
    03:00 +25°C° 1.7 mm 1 mps 742 mmHg 96%
    04:00 +25°C° 1.7 mm 1 mps 742 mmHg 97%
    05:00 +25°C° 0.5 mm 1 mps 743 mmHg 97%
    06:00 +26°C° 0.5 mm 1 mps 744 mmHg 96%
    07:00 +26°C° 0.5 mm 1 mps 744 mmHg 95%
    08:00 +27°C° 0.2 mm 1 mps 744 mmHg 89%
    09:00 +29°C° 0.2 mm 1 mps 744 mmHg 82%
    10:00 +30°C° 0.2 mm 1 mps 744 mmHg 76%
    11:00 +32°C° 0.6 mm 1 mps 743 mmHg 68%
    12:00 +34°C° 0.6 mm 1 mps 742 mmHg 60%
    13:00 +36°C° 0.6 mm 1 mps 740 mmHg 53%
    14:00 +35°C° 0.1 mm 1 mps 740 mmHg 55%
    15:00 +33°C° 0.1 mm 0 mps 739 mmHg 57%
    16:00 +32°C° 0.1 mm 0 mps 739 mmHg 59%
    17:00 +33°C° 0 mm 1 mps 739 mmHg 64%
    18:00 +31°C° 0 mm 1 mps 740 mmHg 68%
    19:00 +29°C° 0 mm 1 mps 740 mmHg 73%
    20:00 +29°C° 0.1 mm 1 mps 741 mmHg 75%
    21:00 +28°C° 0.1 mm 1 mps 741 mmHg 77%
    22:00 +28°C° 0.1 mm 1 mps 742 mmHg 79%
    23:00 +27°C° 0 mm 1 mps 742 mmHg 81%

    Tomorrow, 14 November, Thursday

    Time Temperature Precipitation Wind Pressure Humidity
    00:00 +27°C° 0 mm 1 mps 741 mmHg 82%
    01:00 +26°C° 0 mm 1 mps 741 mmHg 83%
    02:00 +24°C° 0 mm 0 mps 741 mmHg 85%
    03:00 +24°C° 0 mm 0 mps 742 mmHg 86%
    04:00 +24°C° 0 mm 0 mps 742 mmHg 87%
    05:00 +24°C° 0.2 mm 0 mps 743 mmHg 86%
    06:00 +25°C° 0.2 mm 0 mps 743 mmHg 84%
    07:00 +28°C° 0.2 mm 1 mps 744 mmHg 83%
    08:00 +29°C° 1.8 mm 1 mps 744 mmHg 84%
    09:00 +30°C° 1.8 mm 1 mps 744 mmHg 85%
    10:00 +31°C° 1.8 mm 1 mps 744 mmHg 85%
    11:00 +31°C° 1.2 mm 1 mps 743 mmHg 82%
    12:00 +31°C° 1.2 mm 1 mps 742 mmHg 78%
    13:00 +32°C° 1.2 mm 1 mps 741 mmHg 74%
    14:00 +32°C° 0 mm 1 mps 740 mmHg 74%
    15:00 +30°C° 0 mm 0 mps 740 mmHg 74%
    16:00 +29°C° 0 mm 0 mps 739 mmHg 74%
    17:00 +28°C° 0.4 mm 0 mps 740 mmHg 79%
    18:00 +28°C° 0.4 mm 1 mps 740 mmHg 85%
    19:00 +27°C° 0.4 mm 1 mps 741 mmHg 91%
    20:00 +27°C° 2.7 mm 1 mps 741 mmHg 93%
    21:00 +26°C° 2.7 mm 2 mps 742 mmHg 95%
    22:00 +26°C° 2.7 mm 2 mps 743 mmHg 98%
    23:00 +26°C° 1.6 mm 2 mps 742 mmHg 97%

    Day after tomorrow, 15 November, Friday

    Time Temperature Precipitation Wind Pressure Humidity
    00:00 +26°C° 1.6 mm 1 mps 742 mmHg 97%
    01:00 +25°C° 1.6 mm 1 mps 742 mmHg 97%
    02:00 +25°C° 0.2 mm 1 mps 742 mmHg 98%
    03:00 +25°C° 0.2 mm 1 mps 742 mmHg 98%
    04:00 +25°C° 0.2 mm 1 mps 742 mmHg 98%
    05:00 +24°C° 0.1 mm 0 mps 742 mmHg 94%
    06:00 +24°C° 0.1 mm 0 mps 743 mmHg 92%
    07:00 +25°C° 0.1 mm 0 mps 744 mmHg 90%
    08:00 +25°C° 1.3 mm 0 mps 744 mmHg 92%
    09:00 +27°C° 1.3 mm 1 mps 744 mmHg 93%
    10:00 +27°C° 1.3 mm 2 mps 744 mmHg 94%
    11:00 +27°C° 1.4 mm 2 mps 743 mmHg 94%
    12:00 +27°C° 1.4 mm 2 mps 743 mmHg 95%
    13:00 +27°C° 1.4 mm 2 mps 742 mmHg 95%
    14:00 +27°C° 1.4 mm 1 mps 742 mmHg 95%
    15:00 +26°C° 1.4 mm 1 mps 742 mmHg 96%
    16:00 +26°C° 1.4 mm 1 mps 741 mmHg 96%
    17:00 +25°C° 4.1 mm 1 mps 742 mmHg 97%
    18:00 +25°C° 4.1 mm 2 mps 742 mmHg 98%
    19:00 +24°C° 4.1 mm 2 mps 743 mmHg 98%
    20:00 +24°C° 10.1 mm 1 mps 743 mmHg 99%
    21:00 +24°C° 10.1 mm 1 mps 744 mmHg 99%
    22:00 +22°C° 10.1 mm 0 mps 744 mmHg 99%
    23:00 +22°C° 3 mm 0 mps 744 mmHg 99%

    16 November, Saturday

    Time Temperature Precipitation Wind Pressure Humidity
    00:00 +22°C° 3 mm 0 mps 743 mmHg 99%
    01:00 +22°C° 3 mm 0 mps 743 mmHg 99%
    02:00 +22°C° 1.1 mm 0 mps 743 mmHg 99%
    03:00 +22°C° 1.1 mm 0 mps 743 mmHg 99%
    04:00 +22°C° 1.1 mm 0 mps 742 mmHg 99%
    05:00 +22°C° 0.5 mm 0 mps 743 mmHg 99%
    06:00 +22°C° 0.5 mm 0 mps 744 mmHg 99%
    07:00 +22°C° 0.5 mm 0 mps 744 mmHg 99%
    08:00 +23°C° 0.9 mm 0 mps 744 mmHg 98%
    09:00 +23°C° 0.9 mm 0 mps 745 mmHg 98%
    10:00 +23°C° 0.9 mm 0 mps 745 mmHg 98%
    11:00 +23°C° 1.1 mm 0 mps 744 mmHg 98%
    12:00 +23°C° 1.1 mm 0 mps 743 mmHg 97%
    13:00 +23°C° 1.1 mm 0 mps 743 mmHg 97%
    14:00 +25°C° 0.4 mm 1 mps 742 mmHg 97%
    15:00 +25°C° 0.4 mm 1 mps 741 mmHg 98%
    16:00 +25°C° 0.4 mm 1 mps 740 mmHg 98%
    17:00 +24°C° 0 mm 1 mps 741 mmHg 98%
    18:00 +22°C° 0 mm 0 mps 741 mmHg 98%
    19:00 +22°C° 0 mm 0 mps 741 mmHg 98%
    20:00 +22°C° 0 mm 0 mps 742 mmHg 99%
    21:00 +22°C° 0 mm 0 mps 742 mmHg 99%
    22:00 +23°C° 0 mm 1 mps 743 mmHg 99%
    23:00 +23°C° 0 mm 1 mps 742 mmHg 99%

    17 November, Sunday

    Time Temperature Precipitation Wind Pressure Humidity
    00:00 +23°C° 0 mm 1 mps 742 mmHg 99%
    01:00 +23°C° 0 mm 1 mps 742 mmHg 99%
    02:00 +21°C° 0 mm 0 mps 742 mmHg 99%
    03:00 +21°C° 0 mm 0 mps 742 mmHg 99%
    04:00 +21°C° 0 mm 0 mps 742 mmHg 99%
    05:00 +22°C° 0 mm 0 mps 742 mmHg 96%
    06:00 +23°C° 0 mm 0 mps 743 mmHg 94%
    07:00 +24°C° 0 mm 0 mps 743 mmHg 91%
    08:00 +26°C° 0 mm 0 mps 743 mmHg 80%
    09:00 +31°C° 0 mm 1 mps 743 mmHg 68%
    10:00 +33°C° 0 mm 1 mps 743 mmHg 56%
    11:00 +34°C° 0 mm 1 mps 742 mmHg 54%
    12:00 +35°C° 0 mm 1 mps 741 mmHg 52%
    13:00 +33°C° 0 mm 0 mps 740 mmHg 49%
    14:00 +32°C° 0 mm 0 mps 740 mmHg 53%
    15:00 +32°C° 0 mm 0 mps 739 mmHg 57%
    16:00 +31°C° 0 mm 0 mps 738 mmHg 61%
    17:00 +29°C° 0 mm 0 mps 739 mmHg 65%
    18:00 +27°C° 0 mm 0 mps 739 mmHg 68%
    19:00 +26°C° 0 mm 0 mps 740 mmHg 72%
    20:00 +25°C° 0 mm 0 mps 740 mmHg 74%
    21:00 +25°C° 0 mm 0 mps 741 mmHg 76%
    22:00 +24°C° 0 mm 0 mps 742 mmHg 78%
    23:00 +24°C° 0 mm 0 mps 742 mmHg 79%

    18 November, Monday

    Time Temperature Precipitation Wind Pressure Humidity
    00:00 +24°C° 0 mm 0 mps 742 mmHg 80%
    01:00 +24°C° 0 mm 0 mps 741 mmHg 81%
    02:00 +23°C° 0.2 mm 0 mps 741 mmHg 84%
    03:00 +23°C° 0.2 mm 0 mps 741 mmHg 87%
    04:00 +23°C° 0.2 mm 0 mps 741 mmHg 90%
    05:00 +24°C° 0 mm 0 mps 742 mmHg 86%
    06:00 +25°C° 0 mm 0 mps 743 mmHg 82%
    07:00 +26°C° 0 mm 0 mps 743 mmHg 79%
    08:00 +28°C° 0.9 mm 0 mps 743 mmHg 77%
    09:00 +31°C° 0.9 mm 1 mps 743 mmHg 75%
    10:00 +32°C° 0.9 mm 1 mps 743 mmHg 73%
    11:00 +32°C° 1.9 mm 1 mps 742 mmHg 73%
    12:00 +32°C° 1.9 mm 1 mps 742 mmHg 74%
    13:00 +32°C° 1.9 mm 1 mps 741 mmHg 75%
    14:00 +31°C° 0.7 mm 1 mps 740 mmHg 78%
    15:00 +31°C° 0.7 mm 1 mps 740 mmHg 80%
    16:00 +30°C° 0.7 mm 1 mps 739 mmHg 83%
    17:00 +29°C° 0.3 mm 1 mps 740 mmHg 86%
    18:00 +27°C° 0.3 mm 1 mps 740 mmHg 90%
    19:00 +24°C° 0.3 mm 0 mps 741 mmHg 93%
    20:00 +26°C° 0 mm 1 mps 741 mmHg 94%
    21:00 +25°C° 0 mm 1 mps 742 mmHg 95%
    22:00 +25°C° 0 mm 1 mps 743 mmHg 96%
    23:00 +25°C° 0 mm 1 mps 742 mmHg 96%
    Show more